HOGFORS Weather Reports


time (UTC)temp
F
wind
direction
speed
knots
gust
knots
rain 1hr
in
rain 24hr
in
rain mn
in
humidity
%
barometer
mb
20221207231544 -1 27 0.0 0.0 0.00 0.00 0.00 81 1003.3
20221207230031 -1 27 0.0 0.0 0.00 0.00 0.00 80 1003.3
20221207224527 -1 27 0.0 0.0 0.00 0.00 0.00 81 1003.3
20221207223022 -1 27 0.0 0.0 0.00 0.00 0.00 81 1003.7
20221207221517 -1 27 0.0 0.0 0.00 0.00 0.00 81 1003.8
20221207220014 -1 27 0.0 0.0 0.00 0.00 0.00 81 1003.9
20221207214509 -1 28 0.0 0.0 0.00 0.00 0.00 81 1004.1
20221207213004 0 27 0.0 0.0 0.00 0.00 0.00 80 1004.0
20221207211600 0 28 0.0 0.0 0.00 0.00 0.00 80 1004.1
20221207210055 0 27 0.0 0.0 0.00 0.00 0.00 80 1004.3
20221207204554 0 27 0.0 0.0 0.00 0.00 0.00 81 1004.6
20221207203053 0 27 0.0 0.0 0.00 0.00 0.00 80 1004.5
20221207201554 0 28 0.0 0.0 0.00 0.00 0.00 81 1004.4
20221207200037 0 27 0.0 0.0 0.00 0.00 0.00 80 1004.5
20221207194532 0 27 0.0 0.0 0.00 0.00 0.00 81 1004.5
20221207193030 0 27 0.0 0.0 0.00 0.00 0.00 81 1004.6
20221207191528 1 28 0.0 0.0 0.00 0.00 0.00 80 1004.7
20221207190021 1 27 0.0 0.0 0.00 0.00 0.00 80 1004.7
20221207184513 2 27 0.0 0.0 0.00 0.00 0.00 79 1004.8
20221207183012 1 27 0.0 0.0 0.00 0.00 0.00 80 1004.9
20221207181512 1 27 0.0 0.0 0.00 0.00 0.00 80 1004.9
20221207180000 1 28 0.0 0.0 0.00 0.00 0.00 80 1004.9
20221207174613 2 27 0.0 0.0 0.00 0.00 0.00 80 1005.1
20221207173052 2 27 0.0 0.0 0.00 0.00 0.00 80 1005.2
20221207171550 3 27 0.0 0.0 0.00 0.00 0.00 80 1005.2
20221207170043 3 27 0.0 0.0 0.00 0.00 0.00 80 1005.4
20221207164539 4 27 0.0 0.0 0.00 0.00 0.00 79 1005.4
20221207163034 4 27 0.0 0.0 0.00 0.00 0.00 80 1005.6
20221207161530 4 28 0.0 0.0 0.00 0.00 0.00 80 1005.6
20221207160031 5 28 0.0 0.0 0.00 0.00 0.00 80 1005.9
20221207154526 6 27 0.0 0.0 0.00 0.00 0.00 79 1005.9
20221207153021 6 27 0.0 0.0 0.00 0.00 0.00 80 1006.2
20221207151511 7 27 0.0 0.0 0.00 0.00 0.00 79 1006.1
20221207150007 8 28 0.0 0.0 0.00 0.00 0.00 80 1006.2
20221207144510 9 27 0.0 0.0 0.00 0.00 0.00 79 1006.3
20221207143059 10 27 0.0 0.0 0.00 0.00 0.00 79 1006.4
20221207141558 11 27 0.0 0.0 0.00 0.00 0.00 78 1006.4
20221207140050 13 27 0.0 0.0 0.00 0.00 0.00 78 1006.6
20221207134545 0 0.0 0.0 0.00 0.00 0.00 1006.7
20221207133041 15 27 0.0 0.0 0.00 0.00 0.00 77 1006.8
20221207131537 16 28 0.0 0.0 0.00 0.00 0.00 77 1006.9
20221207130033 17 28 0.0 0.0 0.00 0.00 0.00 76 1006.9
20221207124528 17 27 0.0 0.0 0.00 0.00 0.00 76 1007.0
20221207123024 17 28 0.0 0.0 0.00 0.00 0.00 75 1007.0
20221207121519 17 28 0.0 0.0 0.00 0.00 0.00 74 1007.2
20221207120020 16 28 0.9 0.0 0.00 0.00 0.00 75 1007.3
20221207114513 17 27 0.0 0.0 0.00 0.00 0.00 75 1007.4
20221207113007 16 27 0.0 0.0 0.00 0.00 0.00 75 1007.7
20221207111501 16 28 0.0 0.0 0.00 0.00 0.00 73 1007.6
20221207110112 15 27 0.0 0.0 0.00 0.00 0.00 69 1007.7
20221207104552 12 27 0.0 0.0 0.00 0.00 0.00 69 1008.1
20221207103048 11 27 0.0 0.0 0.00 0.00 0.00 68 1008.1
20221207101544 9 28 0.0 0.0 0.00 0.00 0.00 70 1008.2
20221207100040 8 28 0.0 0.0 0.00 0.00 0.00 71 1008.2
20221207094540 7 27 0.0 0.0 0.00 0.00 0.00 72 1008.4
20221207093033 6 27 0.0 0.0 0.00 0.00 0.00 71 1008.5
20221207091527 4 28 0.0 0.0 0.00 0.00 0.00 74 1008.7
20221207090028 4 28 0.0 0.0 0.00 0.00 0.00 75 1008.7
20221207084524 3 27 0.0 0.0 0.00 0.00 0.00 76 1008.6
20221207083017 0 0.0 0.0 0.00 0.00 0.00 1008.7
20221207081509 3 28 0.0 0.0 0.00 0.00 0.00 76 1009.0
20221207080018 3 27 0.0 0.0 0.00 0.00 0.00 77 1009.0
20221207074621 4 27 0.0 0.0 0.00 0.00 0.00 77 1009.0
20221207073127 4 27 0.0 0.0 0.00 0.00 0.00 76 1009.1
20221207071559 5 27 0.0 0.0 0.00 0.00 0.00 75 1009.0
20221207070051 5 27 0.0 0.0 0.00 0.00 0.00 74 1009.0
20221207064546 5 27 0.0 0.0 0.00 0.00 0.00 74 1008.9
20221207063042 5 27 0.0 0.0 0.00 0.00 0.00 74 1008.8
20221207061536 5 27 0.0 0.0 0.00 0.00 0.00 76 1008.7
20221207060055 6 27 0.0 0.0 0.00 0.00 0.00 75 1008.6
20221207054535 6 27 0.0 0.0 0.00 0.00 0.00 74 1008.7
20221207053032 6 27 0.0 0.0 0.00 0.00 0.00 75 1008.7
20221207051533 7 27 0.0 0.0 0.00 0.00 0.00 73 1008.9
20221207050024 7 27 0.0 0.0 0.00 0.00 0.00 73 1009.0
20221207044525 8 27 0.0 0.0 0.00 0.00 0.00 71 1009.0
20221207043020 8 27 0.0 0.0 0.00 0.00 0.00 71 1009.1
20221207041519 8 27 0.0 0.0 0.00 0.00 0.00 71 1009.2
20221207040019 9 27 0.0 0.0 0.00 0.00 0.00 72 1009.2
20221207034513 10 27 0.0 0.0 0.00 0.00 0.00 70 1009.4
20221207033011 10 27 0.0 0.0 0.00 0.00 0.00 68 1009.6
20221207031511 11 28 0.0 0.0 0.00 0.00 0.00 68 1009.6
20221207030010 12 28 0.0 0.0 0.00 0.00 0.00 66 1009.5
20221207024507 13 28 0.0 0.0 0.00 0.00 0.00 62 1009.8
20221207023007 13 27 0.0 0.0 0.00 0.00 0.00 61 1009.8
20221207021506 14 28 0.0 0.0 0.00 0.00 0.00 60 1009.9
20221207020005 14 28 0.0 0.0 0.00 0.00 0.00 59 1010.0
20221207014503 15 28 0.9 0.0 0.00 0.00 0.00 58 1010.0
20221207013103 14 35 0.9 0.0 0.00 0.00 0.00 59 1010.0
20221207011557 11 28 1.7 0.0 0.00 0.00 0.00 64 1010.1
20221207010055 10 27 0.0 0.0 0.00 0.00 0.00 68 1010.2
20221207004554 10 27 0.0 0.0 0.00 0.00 0.00 69 1010.3
20221207003052 10 27 0.0 0.0 0.00 0.00 0.00 69 1010.3
20221207001549 10 27 0.0 0.0 0.00 0.00 0.00 68 1010.4
20221207000048 11 27 0.0 0.0 0.00 0.00 0.00 66 1010.4
20221206234550 11 27 0.0 0.0 0.00 0.00 0.00 66 1010.5
20221206233045 11 27 0.0 0.0 0.00 0.00 0.00 67 1010.5